www.pogodaiklimat.ru

Погода и климат >> Архив погоды >> Австралия >> Новый Южный Уэльс >> Уогга-Уогга


ПОГОДА в Уогга-Уогге

  • Прогноз погоды в Уогга-Уогге
  • Монитор погоды в Уогга-Уогге

АРХИВ ПОГОДЫ в Уогга-Уогге

Время (UTC), дата Ветер
(напр.,м/с)
 
Видим.   Явления Облачность Т
(С)
Тd
(С)
f
(%)
Тe
(С)
Тes
(С)
Комфортность P
(гПа)
Po
(гПа)
Тmin
(С)
Tmax
(С)
R
(мм)
R24
(мм)
S
(см)
01 12.03 ЮЗ 6 н/о н/о +22.5 +7.9 39 +24 +24 комфорт 1010.3 985.8 +14.8
02 12.03 ЮЗ 7 н/о н/о +23.3 +7.4 36 +24 +24 комфорт 1010.0 985.5
03 12.03 З 7 н/о н/о +23.9 +7.1 34 +24 +24 комфорт 1009.6 985.1
04 12.03 З 8 н/о н/о +25.1 +6.8 31 +25 +25 комфорт 1009.4 984.9
05 12.03 З 7 н/о н/о +24.9 +5.7 29 +25 +25 комфорт 1009.1 984.6
06 12.03 З 7 н/о н/о +25.2 +4.9 27 +25 +25 комфорт 1009.2 984.7
07 12.03 ЮЗ 7 н/о н/о +24.6 +3.8 26 +24 +24 комфорт 1009.7 985.2
08 12.03 ЮЗ 6 н/о н/о +23.5 +4.5 29 +23 +23 комфорт 1010.3 985.8
09 12.03 ЮЗ 5 н/о н/о +21.4 +4.5 33 +22 +22 комфорт 1011.2 986.6
10 12.03 ЮЗ 2 н/о н/о +19.1 +4.8 39 +20 +20 1012.0 987.4
11 12.03 ЮЗ 3 н/о н/о +17.7 +4.6 42 +18 +18 1012.6 988.0
12 12.03 ЮЗ 3 н/о н/о +17.0 +5.6 47 +17 +17 1012.9 988.3
13 12.03 ЮЗ 2 н/о н/о +16.5 +5.8 49 +17 +17 1013.1 988.5 +26.3
14 12.03 штиль 0 н/о н/о +15.5 +6.2 54 +15 +15 1013.5 988.9
15 12.03 З 2 н/о н/о +14.5 +5.3 54 +14 +14 1013.6 989.0
16 12.03 З 3 н/о н/о +15.1 +5.6 53 +15 +15 1013.6 989.0
17 12.03 СВ 2 н/о н/о +13.5 +5.9 60 +13 +13 1013.7 989.1
18 12.03 СВ 2 н/о н/о +13.4 +6.5 63 +13 +13 1014.4 989.8
19 12.03 В 2 н/о н/о +12.4 +6.2 66 +12 +12 1014.9 990.3
20 12.03 штиль 0 н/о н/о +10.3 +5.1 70 +10 +10 1015.5 990.8
21 12.03 В 3 н/о н/о +13.6 +6.2 61 +13 +13 1015.7 991.0
22 12.03 В 1 н/о 1/0
[]
+16.2 +5.8 50 +18 +22 1015.8 991.1
23 12.03 ЮВ 2 н/о н/о +18.8 +6.0 43 +20 +20 1016.0 991.3
00 13.03 ЮВ 2 н/о н/о +20.7 +7.3 42 +22 +22 комфорт 1016.0 991.3
01 13.03 СВ 2 н/о н/о +22.5 +7.1 37 +23 +23 комфорт 1015.5 990.8 +9.7
02 13.03 С 3 н/о н/о +23.9 +7.1 34 +24 +24 комфорт 1014.9 990.3
03 13.03 ЮЗ 4 н/о н/о +24.5 +6.7 32 +25 +25 комфорт 1014.2 989.6
04 13.03 З 5 н/о н/о +24.9 +4.6 27 +24 +24 комфорт 1013.8 989.2
05 13.03 З 5 н/о н/о +24.2 +2.9 25 +23 +23 комфорт 1013.4 988.9
06 13.03 З 5 н/о н/о +24.0 +2.2 24 +23 +23 комфорт 1012.8 988.2
07 13.03 З 5 н/о 1/0
[]
+23.4 +1.1 23 +22 +23 комфорт 1013.1 988.5
08 13.03 З 5 н/о н/о +22.6 +1.0 24 +22 +22 комфорт 1013.2 988.6
09 13.03 З 4 н/о н/о +20.6 +0.4 26 +21 +21 комфорт 1013.2 988.6
10 13.03 З 4 н/о 8/0
[]
+19.3 +0.8 29 +20 +20 1013.9 989.3
11 13.03 З 2 н/о н/о +19.1 -0.3 27 +20 +20 1014.9 990.3
12 13.03 ЮЗ 2 н/о н/о +16.9 +0.1 32 +17 +17 1014.9 990.3
13 13.03 штиль 0 н/о 5/5 1000 м
[]
+16.6 +1.5 36 +17 +17 1014.8 990.2 +25.8
14 13.03 штиль 0 н/о н/о +16.4 +0.9 35 +16 +16 1014.4 989.8
15 13.03 ЮЗ 1 н/о н/о +13.4 +0.4 41 +15 +15 1014.0 989.4
16 13.03 штиль 0 н/о 3/0
[]
+13.2 +1.2 44 +13 +13 1013.7 989.1
17 13.03 штиль 0 н/о н/о +14.1 +1.7 43 +14 +14 1013.5 988.9
18 13.03 штиль 0 н/о н/о +14.8 +2.0 42 +15 +15 1013.3 988.7
19 13.03 С 2 н/о 10/0
[]
+13.6 +2.8 48 +14 +14 1013.3 988.7
20 13.03 штиль 0 н/о н/о +13.4 +2.6 48 +13 +13 1013.3 988.7
21 13.03 ЮВ 2 н/о н/о +13.8 +2.7 47 +13 +13 1013.9 989.3
22 13.03 штиль 0 н/о 10/0
[]
+14.7 +3.8 48 +15 +17 1013.9 989.3
23 13.03 З 1 н/о н/о +17.7 +3.2 38 +19 +19 1013.8 989.2
00 14.03 З 3 н/о н/о +21.3 +1.0 26 +21 +21 комфорт 1013.6 989.0
01 14.03 СЗ 3 н/о н/о +23.0 +1.4 24 +22 +22 комфорт 1013.2 988.6 +12.6
02 14.03 З 4 н/о н/о +23.6 +2.4 25 +23 +23 комфорт 1012.6 988.0
03 14.03 З 5 н/о н/о +24.1 +2.9 25 +23 +23 комфорт 1012.1 987.5
04 14.03 ЮЗ 4 н/о 6/0
[]
+24.6 +0.2 20 +23 +30 комфорт 1011.4 986.8
05 14.03 З 5 н/о н/о +26.0 -0.1 18 +24 +24 комфорт 1010.7 986.2
06 14.03 З 5 н/о н/о +25.6 +0.3 19 +24 +24 комфорт 1010.3 985.8
07 14.03 ЮЗ 5 н/о н/о +25.0 -0.9 18 +23 +23 комфорт 1010.3 985.8
08 14.03 З 5 н/о н/о +24.3 -2.3 17 +23 +23 комфорт 1010.4 985.9
09 14.03 З 3 н/о н/о +21.7 -0.9 22 +21 +21 комфорт 1010.6 986.1
10 14.03 ЮЗ 2 н/о н/о +18.5 -1.3 26 +19 +19 1011.4 986.8
11 14.03 ЮЗ 2 н/о н/о +17.3 -1.9 27 +18 +18 1012.0 987.4
12 14.03 штиль 0 н/о н/о +17.0 +0.6 33 +17 +17 1012.1 987.5
13 14.03 ЮЗ 1 н/о н/о +15.6 +1.4 38 +16 +16 1012.0 987.4 +26.5
14 14.03 ЮЗ 1 н/о н/о +15.0 +1.2 39 +16 +16 1012.2 987.6
15 14.03 В 3 н/о н/о +14.7 +0.9 39 +14 +14 1012.1 987.5
16 14.03 Ю 3 н/о н/о +11.8 +0.3 45 +11 +11 1011.7 987.1
17 14.03 ЮВ 2 н/о н/о +12.3 -0.2 42 +12 +12 1011.6 987.0
18 14.03 В 3 н/о н/о +12.6 +1.3 46 +12 +12 1011.9 987.3
19 14.03 В 3 н/о н/о +12.7 +1.1 45 +12 +12 1012.5 987.9
20 14.03 штиль 0 н/о н/о +12.3 +1.3 47 +12 +12 1013.5 988.9
21 14.03 В 4 н/о н/о +15.4 +3.5 45 +15 +15 1014.2 989.6
22 14.03 В 2 н/о н/о +18.6 +6.4 45 +19 +19 1015.0 990.4
23 14.03 В 3 н/о н/о +21.3 +8.9 45 +23 +23 комфорт 1015.5 990.8
00 15.03 СВ 4 н/о н/о +23.0 +9.8 43 +25 +25 комфорт 1015.5 990.8
01 15.03 В 3 н/о н/о +24.6 +9.0 37 +25 +25 комфорт 1014.9 990.3 +11.8
02 15.03 Ю 3 н/о н/о +26.8 +9.6 34 +27 +27 жарко 1014.8 990.2
03 15.03 ЮВ 3 н/о н/о +27.6 +9.0 31 +28 +28 жарко 1014.2 989.6
04 15.03 Ю 6 н/о н/о +28.5 +8.2 28 +28 +28 жарко 1013.5 988.9
05 15.03 ЮЗ 5 н/о н/о +29.6 +8.1 26 +29 +29 жарко 1012.8 988.2
06 15.03 Ю 2 н/о н/о +29.3 +7.2 25 +28 +28 жарко 1012.4 987.8
07 15.03 ЮЗ 2 н/о н/о +29.6 +7.5 25 +29 +29 жарко 1012.5 987.9
08 15.03 З 2 н/о н/о +28.6 +7.2 26 +28 +28 жарко 1012.9 988.3
09 15.03 З 3 н/о н/о +25.9 +7.0 30 +26 +26 жарко 1013.7 989.1
10 15.03 В 3 н/о 1/0
[]
+25.4 +8.0 33 +26 +26 жарко 1015.0 990.4
11 15.03 В 5 н/о н/о +24.6 +8.1 35 +25 +25 комфорт 1015.7 991.0
12 15.03 В 6 н/о н/о +22.5 +10.6 47 +24 +24 комфорт 1016.6 991.9
13 15.03 В 6 н/о н/о +21.2 +10.7 51 +23 +23 комфорт 1016.9 992.2 +30.5
14 15.03 В 6 н/о н/о +20.0 +10.1 53 +21 +21 комфорт 1017.6 992.9
15 15.03 В 4 н/о н/о +18.9 +9.9 56 +20 +20 1017.7 993.0
16 15.03 В 3 н/о н/о +18.3 +9.6 57 +19 +19 1017.2 992.5
17 15.03 В 3 н/о н/о +17.4 +9.6 60 +17 +17 1017.1 992.4
18 15.03 Ю 2 н/о н/о +15.5 +9.2 66 +15 +15 1017.1 992.4
19 15.03 В 2 н/о н/о +16.2 +8.9 62 +16 +16 1017.5 992.8
20 15.03 штиль 0 н/о н/о +15.2 +8.7 65 +15 +15 1017.9 993.2
21 15.03 В 2 н/о н/о +17.8 +8.6 55 +19 +19 1018.2 993.5
22 15.03 ЮВ 4 н/о н/о +21.3 +10.5 50 +23 +23 комфорт 1018.4 993.7
23 15.03 В 6 н/о н/о +23.9 +11.3 45 +25 +25 комфорт 1018.4 993.7
00 16.03 В 9 н/о н/о +26.6 +10.3 36 +27 +27 жарко 1018.3 993.6
01 16.03 В 9 н/о 10/0
[]
+26.4 +10.5 37 +27 +28 жарко 1018.0 993.3 +15.1
02 16.03 СВ 6 н/о н/о +28.4 +10.6 33 +29 +29 жарко 1017.2 992.5
03 16.03 В 8 н/о н/о +27.8 +9.6 32 +28 +28 жарко 1016.5 991.8
04 16.03 В 9 н/о н/о +29.4 +9.5 29 +29 +29 жарко 1016.0 991.3
05 16.03 СВ 8 н/о н/о +29.1 +8.2 27 +29 +29 жарко 1015.6 990.9
06 16.03 СВ 7 н/о н/о +27.6 +8.0 29 +27 +27 жарко 1015.5 990.8
07 16.03 СВ 8 н/о н/о +27.6 +9.0 31 +28 +28 жарко 1015.6 990.9
08 16.03 СВ 8 н/о н/о +26.1 +9.0 34 +26 +26 жарко 1016.2 991.5
09 16.03 В 8 н/о н/о +24.7 +8.6 36 +25 +25 комфорт 1016.6 991.9
10 16.03 СВ 6 н/о н/о +23.9 +8.3 37 +24 +24 комфорт 1016.9 992.2
11 16.03 В 4 н/о н/о +22.9 +9.3 42 +24 +24 комфорт 1017.4 992.7
12 16.03 В 6 н/о н/о +22.3 +10.5 47 +24 +24 комфорт 1017.3 992.6
13 16.03 В 7 н/о н/о +21.5 +11.2 52 +23 +23 комфорт 1017.2 992.5 +30.8
14 16.03 ЮВ 2 н/о н/о +20.1 +9.9 52 +22 +22 комфорт 1017.5 992.8
15 16.03 СВ 4 н/о н/о +19.6 +10.6 56 +21 +21 комфорт 1017.2 992.5
16 16.03 В 3 н/о 9/0
[]
+19.6 +10.9 57 +21 +21 комфорт 1016.7 992.0
17 16.03 ЮВ 2 н/о н/о +18.0 +10.6 62 +19 +19 1016.4 991.7
18 16.03 СВ 3 н/о н/о +17.2 +10.6 65 +17 +17 1016.7 992.0
19 16.03 Ю 2 н/о 4/0
[]
+15.1 +10.1 72 +15 +15 1017.0 992.3
20 16.03 ЮВ 4 н/о н/о +16.6 +11.1 70 +16 +16 1017.4 992.7
21 16.03 С 1 н/о н/о +16.3 +10.4 68 +17 +17 1017.9 993.2
22 16.03 штиль 0 н/о н/о +19.5 +11.3 59 +21 +21 комфорт 1018.0 993.3
23 16.03 В 3 н/о н/о +23.5 +11.9 48 +25 +25 комфорт 1018.0 993.3
00 17.03 СВ 3 н/о н/о +24.4 +11.4 44 +26 +26 жарко 1017.6 992.9
01 17.03 С 2 н/о н/о +25.8 +11.6 41 +27 +27 жарко 1016.7 992.0 +14.2
02 17.03 С 3 н/о н/о +26.7 +10.4 36 +27 +27 жарко 1015.8 991.1
03 17.03 С 4 н/о н/о +26.2 +10.0 36 +27 +27 жарко 1014.9 990.3
04 17.03 СЗ 4 н/о 1/0
[]
+26.4 +10.1 36 +27 +35 жарко 1014.1 989.5
05 17.03 СЗ 3 н/о н/о +26.8 +9.6 34 +27 +27 жарко 1013.4 988.8
06 17.03 С 3 н/о н/о +27.2 +10.0 34 +28 +28 жарко 1012.9 988.3
07 17.03 С 3 н/о 4/0
[]
+27.4 +10.2 34 +28 +29 жарко 1013.0 988.4
08 17.03 ЮЗ 2 н/о н/о +26.9 +10.2 35 +27 +27 жарко 1012.9 988.3
09 17.03 ЮЗ 1 н/о н/о +24.8 +9.9 39 +26 +26 жарко 1012.8 988.2
10 17.03 штиль 0 н/о 5/0
[]
+23.0 +9.8 43 +25 +25 комфорт 1013.4 988.8
11 17.03 Ю 2 н/о н/о +22.2 +9.7 45 +24 +24 комфорт 1013.8 989.2
12 17.03 штиль 0 н/о н/о +21.3 +10.8 51 +23 +23 комфорт 1013.9 989.3
13 17.03 штиль 0 н/о 5/0 2000 м
[]
+21.0 +10.8 52 +23 +23 комфорт 1013.9 989.3 +28.0
14 17.03 ЮВ 1 н/о н/о +20.7 +10.2 51 +23 +23 комфорт 1013.8 989.2
15 17.03 В 3 н/о н/о +20.5 +10.3 52 +22 +22 комфорт 1013.5 988.9
16 17.03 ЮВ 3 н/о 8/0
[]
+20.3 +10.7 54 +22 +22 комфорт 1013.1 988.5
17 17.03 штиль 0 н/о н/о +19.0 +10.3 57 +20 +20 1012.6 988.0
18 17.03 Ю 2 н/о н/о +19.1 +9.9 55 +20 +20 1012.6 988.0
19 17.03 ЮВ 4 н/о 6/0
[]
+20.1 +9.4 50 +22 +22 комфорт 1012.7 988.1
20 17.03 З 1 н/о н/о +17.9 +9.8 59 +20 +20 1012.6 988.0
21 17.03 СВ 2 н/о н/о +18.9 +10.7 59 +20 +20 1013.1 988.5
22 17.03 Ю 2 н/о 10/0
[]
+22.6 +8.0 39 +24 +25 комфорт 1013.3 988.7
23 17.03 Ю 5 н/о н/о +23.9 +6.7 33 +24 +24 комфорт 1013.3 988.7
00 18.03 Ю 5 н/о н/о +25.6 +9.8 37 +26 +26 жарко 1012.8 988.2
01 18.03 Ю 6 н/о 3/0
[]
+26.3 +10.0 36 +27 +31 жарко 1012.5 987.9 +17.8
02 18.03 Ю 5 н/о н/о +29.4 +11.9 34 +30 +30 жарко 1011.6 987.0
03 18.03 Ю 8 н/о н/о +27.5 +11.5 37 +28 +28 жарко 1010.8 986.3
04 18.03 ЮВ 5 н/о 4/0
[]
+29.4 +12.8 36 +31 +35 жарко 1010.4 985.9
05 18.03 Ю 3 н/о н/о +28.5 +12.4 37 +30 +30 жарко 1009.9 985.4
06 18.03 Ю 4 н/о н/о +29.1 +11.6 34 +30 +30 жарко 1009.6 985.1
07 18.03 Ю 5 н/о 10/0
[]
+28.8 +13.1 38 +30 +31 жарко 1009.8 985.3
08 18.03 В 8 н/о н/о +24.1 +15.1 57 +27 +27 жарко 1010.8 986.3
09 18.03 В 4 н/о н/о +23.2 +16.0 64 +28 +28 душно 1011.7 987.1
10 18.03 В 4 н/о 1/0
[]
+21.8 +16.5 72 +26 +26 душно 1012.3 987.7
11 18.03 В 2 н/о н/о +20.3 +16.5 79 +24 +24 комфорт 1012.8 988.2
12 18.03 В 2 н/о н/о +21.4 +15.9 71 +25 +25 комфорт 1012.9 988.3
13 18.03 ЮВ 3 н/о н/о +20.4 +15.6 74 +24 +24 комфорт 1013.1 988.5 +30.9
14 18.03 ЮВ 4 н/о н/о +19.8 +15.7 77 +22 +22 комфорт 1012.8 988.2
15 18.03 В 3 н/о н/о +19.3 +15.4 78 +21 +21 комфорт 1012.7 988.1
16 18.03 СЗ 2 н/о н/о +18.4 +15.1 81 +19 +19 1012.5 987.9
17 18.03 Ю 3 н/о н/о +18.1 +15.9 87 +18 +18 1012.5 987.9
18 18.03 В 3 н/о н/о +18.2 +15.6 85 +19 +19 1012.5 987.9
19 18.03 штиль 0 н/о 4/0
[]
+17.4 +14.9 85 +17 +17 1012.7 988.1
20 18.03 Ю 2 н/о н/о +15.9 +14.3 90 +16 +16 1013.1 988.5
21 18.03 штиль 0 н/о н/о +17.8 +15.1 84 +18 +18 1013.7 989.1
22 18.03 С 1 н/о н/о +21.8 +15.2 66 +25 +25 комфорт 1014.2 989.6
23 18.03 Ю 1 н/о н/о +24.1 +14.8 56 +27 +27 жарко 1014.5 989.9
00 19.03 С 2 н/о н/о +26.2 +14.3 48 +29 +29 жарко 1014.2 989.6
01 19.03 З 2 н/о н/о +27.2 +13.5 43 +29 +29 жарко 1013.7 989.1 +15.9

 

Местоположение метеостанции Уогга-Уогга (Новый Южный Уэльс, Австралия): широта -35.16 долгота 147.45 высота над уровнем моря 213 м.

В архиве по умолчанию представлена погода в Уогга-Уогге за последнюю неделю. Архивные данные за месяц целиком и за предыдущие месяцы, начиная с января 2011 года, Вы можете получить, выбрав интересующий диапазон дат из раскрывающегося списка и нажав кнопку "Ввод!".


*Определитесь, кто Вы:
робот инопланетянин человек

Внимание! Время в таблицах - всемирное. Для получения местного времени необходимо прибавить поправку, которая равна 10 ч.

Смотрите также архив погоды в соседних городах и на ближайших метеорологических станциях:

Погода в Теморе (Новый Южный Уэльс, Австралия) (83 км)
Погода в Наррандере (Новый Южный Уэльс, Австралия) (98 км)
Погода в Янко (Новый Южный Уэльс, Австралия) (111 км)
Погода в Олбери (Новый Южный Уэльс, Австралия) (111 км)
Погода в Хантерс Хилл (Виктория, Австралия) (118 км)
Погода в Кабрамерре (Новый Южный Уэльс, Австралия) (120 км)
Погода в Янге (Новый Южный Уэльс, Австралия) (125 км)
Погода в Маунт Джинини (Новый Южный Уэльс, Австралия) (127 км)
Погода в Ханкобане (Новый Южный Уэльс, Австралия) (134 км)
Погода в Рутерглене (Виктория, Австралия) (135 км)

Пояснения к столбцам:

Ветер - указаны скорость ветра в м/с - средняя за 10 мин, порывы в срок и между сроками (в фигурных скобках) и направление, откуда дует ветер: С - северный, СВ - северо-восточный, В - восточный, ЮВ - юго-восточный, Ю - южный, ЮЗ - юго-западный, З - западный, СЗ - северо-западный.
Видимость - горизонтальная дальность видимости в метрах или километрах. При видимости от 1 до 10 км при отсутствии осадков обычно наблюдается дымка, при ухудшении видимости до 1 км и менее - туман. В сухую погоду видимость может ухудшаться дымом, пылью или мглою.
Явления - указаны атмосферные явления, наблюдавшиеся в срок или в последний час перед сроком; фигурными скобками обозначены явления, наблюдавшиеся между сроками (за 1-3 часа до срока); квадратными скобками обозначены град или гололедные отложения с указанием их диаметра в мм.
Облачность - указаны через наклонную черту общая и нижняя облачность в баллах и высота нижней границы облаков в метрах; квадратными скобками обозначены формы облаков: Ci - перистые, Cs - перисто-слоистые, Cc - перисто-кучевые, Ac - высококучевые, As - высокослоистые, Sc - слоисто-кучевые, Ns - слоисто-дождевые, Cu - кучевые, Cb - кучево-дождевые. Подробнее классификацию облаков см. в Атласе облаков (PDF).
T - Температура воздуха - температура, измеренная на высоте 2 м над землей.
Td - Температура точки росы - температура, при понижении до которой содержащийся в воздухе водяной пар достигнет насыщения.
f - Относительная влажность воздуха - влажноcть воздуха, измеренная на высоте 2 м над землей.
Te - Эффективная температура - температура, которую ощущает одетый по сезону человек в тени. Характеристика душности погоды. При расчете учитывается влияние влажности воздуха и скорости ветра на теплоощущения человека.
Tes - Эффективная температура на солнце - температура, которую ощущает человек, с поправкой на солнечный нагрев. Характеристика знойности погоды. Зависит от высоты солнца над горизонтом, облачности и скорости ветра. Ночью, в пасмурную погоду, а также при ветре 12 м/с и более поправка равна нулю.
P - Атмосферное давление - приведенное к уровню моря атмосферное давление.
Po - Атмосферное давление - измеренное на уровне метеостанции атмосферное давление.
Tmin - Минимальная температура - минимум температуры воздуха на высоте 2 м над землей.
Tmax - Максимальная температура - максимум температуры воздуха на высоте 2 м над землей.
R - Количество осадков - Количество выпавших осадков за период времени, мм. При наведении курсора мыши на число - период времени, за который выпало указанное количество осадков.
R24 - Количество осадков - Количество выпавших осадков за 24 часа, мм.
S - Снежный покров - Высота снежного покрова, см. При наведении курсора мыши на число - состояние снежного покрова и степень покрытия местности в баллах.